Regional Weather Roundup
Issued by NWS State College, PA

Home | Current Version | Previous Version | Text Only | Print | Product List | Glossary Off
Versions: 1 2 3 4 5 6 7 8 9 10 11 12 13 14 15 16 17 18 19 20 21 22 23 24 25 26 27 28 29 30 31 32 33 34 35 36 37 38 39 40 41 42 43 44 45 46 47 48 49 50

383
ASUS41 KCTP 241203
RWRCTP

REGIONAL WEATHER ROUNDUP
NATIONAL WEATHER SERVICE STATE COLLEGE PA
700 AM EST SAT FEB 24 2018

Note: "fair" indicates few or no clouds below 12,000 feet with no
significant weather and/or obstructions to visibility.

* = STATION THAT DOES NOT REPORT PRECIPITATION /E.G. RAIN...SNOW...ETC/
    THUNDER OR FOG.

PAZ002>004-007>009-013>016-020>023-029>032-241300-
WESTERN PENNSYLVANIA

CITY           SKY/WX    TMP DP  RH WIND       PRES   REMARKS
ERIE           CLOUDY    38  32  79 E3        30.23R
MEADVILLE      LGT RAIN  38  37  97 N8        30.18F
FRANKLIN*      LGT RAIN  40  38  93 N7        30.17F
NEW CASTLE     LGT RAIN  43  42  97 NW3       30.21R
BEAVER COUNTY  NOT AVBL
BUTLER*        CLOUDY    45  41  86 NE3       30.20R
PITTSBURGH INT LGT RAIN  47  43  86 NW6       30.20R
PITTSBURGH     LGT RAIN  47  43  86 N5        30.18R
INDIANA*       CLOUDY    46  45  93 NE6       30.19S
LATROBE        CLOUDY    50  48  93 NW8       30.18R
WASHINGTON CO* LGT RAIN  49  47  93 NE12      30.16F
$$

PAZ004>006-010>012-017>019-024>028-033>037-041-042-045-046-049>053-241300-
CENTRAL PENNSYLVANIA

CITY           SKY/WX    TMP DP  RH WIND       PRES   REMARKS
BRADFORD       CLOUDY    40  37  89 N3        30.16S
DUBOIS         CLOUDY    43  38  82 N5        30.14F
CLEARFIELD     FAIR      44  42  93 N5        30.16S
JOHNSTOWN      FOG       48  46  93 N5        30.12F VSB 1/4
ALTOONA        CLOUDY    41  41 100 NE3       30.14F FOG
STATE COLLEGE  FOG       39  39 100 CALM      30.16S VSB 1/8
WILLIAMSPORT   FOG       40  40 100 CALM      30.19F VSB 1
SELINSGROVE    FOG       41  41 100 CALM      30.20S VSB 1/2
FT INDIANTOWN  FOG       41  41 100 SW3       30.18R VSB 3/8
CAPITAL CITY   CLOUDY    45  43  93 CALM      30.18S FOG
HARRISBURG     CLOUDY    44  42  93 N3        30.17S FOG
YORK           FOG       44  44 100 NE6       30.17S VSB 1/4
$$

PAZ038>040-043-044-047-048-054-055-060>062-067>071-241300-
EASTERN PENNSYLVANIA

CITY           SKY/WX    TMP DP  RH WIND       PRES   REMARKS
SCRANTON       FOG       40  40 100 W3        30.18F VSB 1/4
MOUNT POCONO   CLOUDY    40  40 100 NW9       30.14R
ALLENTOWN      CLOUDY    42  40  92 CALM      30.18S FOG
QUAKERTOWN*    SUNNY     39  39 100 CALM      30.18R FOG
READING        CLOUDY    42  42 100 CALM      30.17R FOG
LANCASTER      FOG       43  43 100 CALM      30.17S VSB 1/4
COATESVILLE    FOG       43  43 100 CALM      30.18S VSB<1/4
POTTSTOWN      FOG       42  42 100 CALM      30.18S VSB 1/4
BLUE BELL      CLOUDY    41  41 100 CALM      30.19S
DOYLESTOWN     CLOUDY    42  42 100 N3        30.17S FOG
WILLOW GROVE   NOT AVBL
NORTH PHILA    CLOUDY    46  43  89 W3        30.20S FOG
PHILADELPHIA   CLOUDY    45  43  93 CALM      30.19F FOG
$$




USA.gov is the U.S. government's official web portal to all federal, state and local government web resources and services.